This demonstration page uses our WeatherBlox Daily Observations layout. Learn more.

Left ArrowRight Arrow

40.92501, -98.34201

Hourly Observations for June 29, 2015

Temp ( °F °C ) Dew Point ( °F °C ) Humidity (%) Winds ( mph kmh ) Pressure ( in mb ) Visibility ( mi km ) Precip ( " mm )
12:53 am 00:53 Clear 61 16.1 55 12.8 81 81 WNW 6 9 29.96 1015 10 16 0.00 0.00
1:53 am 01:53 Clear 60 15.6 54 12.2 80 80 W 6 9 29.96 1015 10 16 0.00 0.00
2:53 am 02:53 Clear 59 15 54 12.2 83 83 W 7 11 29.97 1015 10 16 0.00 0.00
3:53 am 03:53 Clear 58 14.4 54 12.2 87 87 W 7 11 29.98 1015 10 16 0.00 0.00
4:53 am 04:53 Clear 57 13.9 54 12.2 90 90 W 8 13 29.98 1015 10 16 0.00 0.00
5:53 am 05:53 Clear 57 13.9 54 12.2 90 90 W 3 6 29.99 1016 10 16 0.00 0.00
6:53 am 06:53 Sunny 58 14.4 54 12.2 87 87 W 5 7 30.00 1016 9 14 0.00 0.00
7:53 am 07:53 Mostly Sunny 62 16.7 56 13.3 80 80 WNW 7 11 30.01 1016 10 16 0.00 0.00
8:53 am 08:53 Sunny 67 19.4 58 14.4 73 73 WNW 7 11 30.02 1017 10 16 0.00 0.00
9:53 am 09:53 Sunny 73 22.8 58 14.4 59 59 WNW 7 11 30.02 1017 10 16 0.00 0.00
10:53 am 10:53 Sunny 77 25 60 15.6 56 56 W 8 13 30.01 1016 10 16 0.00 0.00
11:53 am 11:53 Sunny 81 27.2 57 13.9 44 44 NNW 9 15 30.00 1016 10 16 0.00 0.00
12:53 pm 12:53 Sunny 83 28.3 58 14.4 43 43 NNW 7 11 30.00 1016 10 16 0.00 0.00
1:53 pm 13:53 Sunny 86 30 57 13.9 37 37 NW 12 19 29.99 1016 10 16 0.00 0.00
2:53 pm 14:53 Sunny 87 30.6 57 13.9 36 36 NNW 14 22 29.98 1015 8 13 0.00 0.00
3:53 pm 15:53 Sunny 88 31.1 57 13.9 35 35 NW 5 7 29.96 1015 7 11 0.00 0.00
4:53 pm 16:53 Hazy 89 31.7 57 13.9 34 34 VRB 5 7 29.95 1014 6 10 0.00 0.00
5:53 pm 17:53 Sunny 90 32.2 56 13.3 32 32 NNW 7 11 29.93 1014 7 11 0.00 0.00
6:53 pm 18:53 Sunny 89 31.7 56 13.3 33 33 N 6 9 29.93 1014 7 11 0.00 0.00
7:53 pm 19:53 Hazy 85 29.4 62 16.7 46 46 ENE 5 7 29.93 1013 5 8 0.00 0.00
8:53 pm 20:53 Hazy 79 26.1 64 17.8 60 60 ESE 5 7 29.93 1014 5 8 0.00 0.00
9:53 pm 21:53 Hazy 74 23.3 62 16.7 67 67 ESE 6 9 29.95 1014 6 10 0.00 0.00
10:53 pm 22:53 Clear 71 21.7 63 17.2 76 76 ESE 6 9 29.96 1015 7 11 0.00 0.00
11:53 pm 23:53 Clear 70 21.1 62 16.7 76 76 SSE 5 7 29.95 1014 7 11 0.00 0.00

Powered by AerisWeather